GPS IIA-1

operational
NORAD ID: 20959 Int'l Des: 1990-103 Owner: AFSSD2 Country: US Constellation: GPS
MEOCIRCULAR

GPS IIA-1について

説明を読み込み中...

リアルタイム位置

3D地球を読み込み中...

次回通過

高度履歴

Altitude vs Time

uPlot chart will show altitude changes over time

軌道要素

1 20959U 90103A 26059.21935655 -.00000018 00000-0 00000-0 0 9996
2 20959 56.1080 55.4004 0021517 87.1159 273.1537 1.88155196253813
Epoch: Feb 28, 2026 • Age: 112 hours

現在のステータス

高度 21301.8 km
速度 3.80 km/s
衛星直下点 34.06°N, 163.36°E
打ち上げ日 Nov 26, 1990
運用期間 35.2 years
タイプ navigation

技術仕様

分類 Payload
質量 860.00 kg
乾燥質量 860.00 kg
総質量 1881.00 kg
長さ 2.40 m
直径 1.80 m
スパン 5.30 m
形状 Box + 2 Pan
製造者 RWISB
バスタイプ GPS IIA
フェーズステータス In Orbit
所有者/国 AFSSD2/US

大規模コンステレーション

Loading constellations...